[[{"header":{"parameterUnit":"m.s-1","parameterCategory":1,"la1":30.2991,"la2":30.254,"lo1":-89.0895,"lo2":-89.0444,"dy":0.0017,"dx":0.0017,"nx":28,"ny":28,"refTime":"2024-05-18T21:00:00:Z","depth":0,"parameterNumber":2,"parameterNumberName":"U-component_of_WINDS"},"data":[0,0,0,0,0,0,0,0,0,0,0,0,0,0,0,0,0,0,0,0,0,0,0,0,0,0,0,0,0,0,0,0,0,0,0,0,0,0,0,0,0,0,0,0,0,0,0,0,0,0,0,0,0,0,0,0,0,0,1.381,1.3811,0,1.3848,1.3848,1.3849,1.3752,1.3749,1.3746,1.3743,1.3787,1.3791,1.3795,0,0,0,0,0,0,0,0,0,0,0,0,0,1.3659,1.3662,1.381,1.3811,1.3811,1.3848,1.3848,1.3849,1.3752,1.3749,1.3745,1.3741,1.3785,1.379,1.3795,0,0,0,0,0,0,0,0,0,0,0,0,0,1.3714,1.3663,1.381,1.3767,1.3764,1.3848,1.3848,1.3849,1.3753,1.3749,1.3744,1.374,1.3784,1.379,1.3796,1.3924,0,0,1.3814,1.3817,0,0,0,0,0,0,0,0,1.3711,1.3719,1.3773,1.377,1.3767,1.379,1.3811,1.3875,1.3754,1.3757,1.3743,1.3737,1.3792,1.3797,1.3814,1.3926,1.3928,1.3814,1.3818,1.3821,1.3822,0,0,0,0,0,0,0,1.3707,1.3717,1.3825,1.3774,1.377,1.3748,1.375,1.3823,1.38,1.3757,1.375,1.3755,1.3789,1.3809,1.3815,1.3929,1.3814,1.382,1.3823,1.3826,1.415,1.4155,0,0,0,0,0,0,1.3708,1.3715,1.3824,1.3826,1.3727,1.3754,1.3757,1.3787,1.3799,1.3796,1.3759,1.3751,1.3801,1.3808,1.3816,1.3968,1.3821,1.3826,1.383,1.4145,1.4151,1.4156,0,0,0,0,0,0,1.3705,1.3719,1.3822,1.3769,1.378,1.3762,1.3796,1.3791,1.381,1.3801,1.3797,1.3783,1.3797,1.3807,1.3898,1.3968,1.3829,1.3834,1.4139,1.4147,1.4154,1.4273,0,0,0,0,0,0,1.3701,1.3718,1.3766,1.377,1.3783,1.3903,1.3801,1.3795,1.382,1.3809,1.3822,1.382,1.3795,1.389,1.3904,1.3974,1.3839,1.4133,1.4142,1.4151,1.4263,1.4284,1.4302,0,0,0,0,0,1.3696,1.3799,1.3769,1.3783,1.3842,1.3907,1.3915,1.3882,1.3826,1.3874,1.3869,1.3819,1.3958,1.39,1.3915,1.3988,1.4128,1.414,1.4151,1.4254,1.428,1.4301,0,0,0,0,0,0,1.3805,1.3799,1.3765,1.3872,1.3891,1.389,1.3951,1.391,1.3946,1.3935,1.3895,1.3898,1.3997,1.4001,1.3936,1.4114,1.4034,1.4049,1.4107,1.4131,1.4151,1.4148,1.3844,0,0,0,0,0,1.3841,1.3893,1.3885,1.398,1.3991,1.397,1.3997,1.397,1.3988,1.3996,1.3997,1.4018,1.4066,1.4099,1.4143,1.4263,1.4265,1.4321,1.434,1.4356,1.437,1.4435,1.446,1.4193,1.4193,1.4193,0,0,1.3917,1.392,1.3955,1.4002,1.4013,1.4069,1.3977,1.404,1.4082,1.4006,1.4091,1.4093,1.4114,1.422,1.4267,1.4227,1.4444,1.4371,1.4383,1.4388,1.4449,1.4474,1.4497,1.4201,1.42,1.4198,0,0,1.4083,1.409,1.417,1.4183,1.4201,1.4186,1.4206,1.4212,1.4209,1.4294,1.4239,1.4289,1.4372,1.439,1.441,1.4583,1.454,1.4599,1.4701,1.4765,1.4786,1.4804,1.4867,1.489,1.4612,1.4613,1.4613,0,1.4176,1.4256,1.4217,1.4284,1.4307,1.424,1.4322,1.4337,1.4369,1.4387,1.4341,1.4445,1.4454,1.4564,1.4607,1.4625,1.4647,1.4598,1.4785,1.4804,1.482,1.488,1.4904,1.462,1.4619,1.4618,1.4618,0,1.4369,1.4426,1.4489,1.452,1.455,1.4625,1.4599,1.4634,1.4605,1.4596,1.4684,1.4692,1.4737,1.4761,1.4734,1.4868,1.4842,1.4792,1.4711,1.4853,1.4909,1.4931,1.463,1.4627,1.4625,1.4624,0,0,1.4606,1.4614,1.4638,1.4651,1.4666,1.471,1.4782,1.4824,1.4856,1.4881,1.4941,1.5013,1.4967,1.4989,1.4964,1.502,1.5158,1.4962,1.4962,1.4999,1.5307,1.5346,1.5373,1.5129,1.5133,1.5136,1.5306,0,1.477,1.4892,1.486,1.4982,1.5034,1.4972,1.5034,1.5051,1.5045,1.509,1.5083,1.5135,1.5069,1.5082,1.5135,1.513,1.522,1.5117,1.5186,1.5189,1.5183,1.5401,1.5442,1.5602,1.5327,1.5331,1.5333,0,1.4979,1.501,1.5137,1.5144,1.5165,1.5222,1.5258,1.5301,1.532,1.5311,1.5337,1.53,1.5373,1.529,1.5391,1.5322,1.5348,1.5351,1.5356,1.5362,1.527,1.5414,1.5651,1.5676,1.5367,1.5364,1.5362,0,1.514,1.5214,1.5299,1.5313,1.5322,1.5364,1.537,1.5384,1.5412,1.5444,1.5462,1.5503,1.5526,1.556,1.5536,1.5478,1.5641,1.5556,1.5637,1.5638,1.5675,1.5673,1.5921,1.5691,1.569,1.569,1.5689,0,1.5328,1.5408,1.5372,1.5425,1.5513,1.5476,1.5565,1.5564,1.5577,1.563,1.5579,1.563,1.5594,1.5643,1.5625,1.5711,1.5722,1.5718,1.5713,1.5723,1.5724,1.574,1.5729,1.5696,1.5695,1.5694,1.5692,0,1.5523,1.5501,1.559,1.5592,1.5594,1.566,1.5662,1.5711,1.5701,1.5768,1.5782,1.5766,1.5821,1.5799,1.5858,1.5846,1.5957,1.5936,1.595,1.5945,1.6027,1.602,1.6295,1.633,1.6077,1.6079,1.6081,0,1.5644,1.5705,1.5712,1.5743,1.5753,1.5803,1.5831,1.5797,1.5828,1.5854,1.5901,1.5951,1.5989,1.6079,1.6074,1.6119,1.6099,1.6193,1.6106,1.6115,1.6102,1.6099,1.6105,1.621,1.6213,1.6216,1.6218,0,1.5863,1.5849,1.589,1.5929,1.5963,1.5991,1.6016,1.6044,1.6012,1.605,1.6104,1.6134,1.6193,1.6243,1.6283,1.6291,1.625,1.6245,1.6266,1.6278,1.6284,1.6282,1.5998,1.6239,1.6237,1.6235,1.6234,1.6233,1.6025,1.6076,1.609,1.6138,1.6152,1.6176,1.6223,1.6218,1.6262,1.6306,1.6284,1.6347,1.6365,1.6414,1.6428,1.6478,1.6442,1.6473,1.6481,1.6489,1.65,1.6275,1.6486,1.6485,1.6484,1.6484,1.6483,0,1.6242,1.6247,1.6292,1.6327,1.6365,1.6321,1.6346,1.6381,1.6437,1.6456,1.6494,1.6558,1.6606,1.6605,1.665,1.6691,1.6673,1.6704,1.6701,1.6704,1.6529,1.6507,1.6718,1.6718,1.6718,1.6718,1.6718,1.6718,1.6359,1.6443,1.6431,1.6523,1.6527,1.6588,1.6606,1.6629,1.6644,1.6716,1.6756,1.6754,1.6765,1.6811,1.6855,1.6853,1.6873,1.6911,1.6903,1.674,1.6716,1.6694,1.6673,1.6915,1.6916,1.7073,1.7075,1.7076]},{"header":{"parameterUnit":"m.s-1","parameterCategory":1,"la1":30.2991,"la2":30.254,"lo1":-89.0895,"lo2":-89.0444,"dy":0.0017,"dx":0.0017,"nx":28,"ny":28,"refTime":"2024-05-18T21:00:00:Z","depth":0,"parameterNumber":3,"parameterNumberName":"V-component_of_WINDS"},"data":[0,0,0,0,0,0,0,0,0,0,0,0,0,0,0,0,0,0,0,0,0,0,0,0,0,0,0,0,0,0,0,0,0,0,0,0,0,0,0,0,0,0,0,0,0,0,0,0,0,0,0,0,0,0,0,0,0,0,-0.9242,-0.9241,0,-0.9206,-0.9205,-0.9205,-0.923,-0.9232,-0.9233,-0.9234,-0.9194,-0.9192,-0.919,0,0,0,0,0,0,0,0,0,0,0,0,0,-0.9332,-0.933,-0.9242,-0.9241,-0.9241,-0.9206,-0.9205,-0.9205,-0.923,-0.9232,-0.9233,-0.9234,-0.9195,-0.9192,-0.919,0,0,0,0,0,0,0,0,0,0,0,0,0,-0.9294,-0.9329,-0.9242,-0.9249,-0.925,-0.9206,-0.9205,-0.9205,-0.923,-0.9232,-0.9233,-0.9235,-0.9195,-0.9192,-0.9189,-0.9135,0,0,-0.9179,-0.9178,0,0,0,0,0,0,0,0,-0.9296,-0.929,-0.9249,-0.9249,-0.9249,-0.9224,-0.9222,-0.9181,-0.923,-0.9237,-0.9234,-0.9236,-0.9202,-0.9199,-0.9188,-0.9133,-0.9131,-0.9179,-0.9177,-0.9176,-0.9175,0,0,0,0,0,0,0,-0.9298,-0.9292,-0.9227,-0.9248,-0.9248,-0.9254,-0.9251,-0.9215,-0.9211,-0.9237,-0.9239,-0.9234,-0.9203,-0.9191,-0.9187,-0.9131,-0.9179,-0.9176,-0.9174,-0.9173,-0.9033,-0.9032,0,0,0,0,0,0,-0.9301,-0.9294,-0.9229,-0.9226,-0.9277,-0.9251,-0.9247,-0.9231,-0.9211,-0.921,-0.9233,-0.9235,-0.9196,-0.9191,-0.9186,-0.9124,-0.9176,-0.9173,-0.9171,-0.9035,-0.9033,-0.9031,0,0,0,0,0,0,-0.9302,-0.9295,-0.923,-0.9261,-0.9253,-0.9248,-0.9229,-0.9229,-0.9217,-0.9208,-0.9207,-0.9222,-0.9197,-0.9191,-0.9149,-0.9123,-0.9171,-0.9169,-0.9037,-0.9034,-0.9032,-0.8997,0,0,0,0,0,0,-0.9305,-0.9295,-0.9274,-0.926,-0.9251,-0.9193,-0.9227,-0.9227,-0.9212,-0.9215,-0.9197,-0.9196,-0.9198,-0.9153,-0.9145,-0.9119,-0.9166,-0.9039,-0.9036,-0.9033,-0.9001,-0.8994,-0.8988,0,0,0,0,0,-0.9308,-0.9264,-0.9273,-0.9265,-0.9225,-0.9191,-0.9186,-0.919,-0.921,-0.9189,-0.9184,-0.9197,-0.9127,-0.9149,-0.914,-0.9113,-0.9041,-0.9037,-0.9033,-0.9004,-0.8995,-0.8988,0,0,0,0,0,0,-0.9274,-0.9263,-0.9272,-0.9223,-0.9208,-0.9196,-0.917,-0.9181,-0.9159,-0.9163,-0.9168,-0.9163,-0.912,-0.9112,-0.9136,-0.9061,-0.9087,-0.9081,-0.9068,-0.906,-0.9053,-0.9056,-0.9163,0,0,0,0,0,-0.9261,-0.9235,-0.9226,-0.9183,-0.9176,-0.9174,-0.9159,-0.9164,-0.9149,-0.9142,-0.9133,-0.9117,-0.9092,-0.9075,-0.9051,-0.9,-0.8997,-0.8977,-0.897,-0.8965,-0.896,-0.8935,-0.8926,-0.9018,-0.9018,-0.9018,0,0,-0.9233,-0.9224,-0.9206,-0.9177,-0.9166,-0.9139,-0.9169,-0.9138,-0.9118,-0.9137,-0.9098,-0.9091,-0.9074,-0.9028,-0.9007,-0.9019,-0.8935,-0.896,-0.8956,-0.8954,-0.893,-0.8921,-0.8914,-0.9015,-0.9015,-0.9016,0,0,-0.9169,-0.9159,-0.9124,-0.9113,-0.9097,-0.9097,-0.9089,-0.9076,-0.9072,-0.9034,-0.9048,-0.9024,-0.898,-0.8968,-0.8956,-0.8892,-0.8903,-0.8884,-0.885,-0.8825,-0.8818,-0.8812,-0.8791,-0.8783,-0.8878,-0.8878,-0.8878,0,-0.9136,-0.9097,-0.9104,-0.9073,-0.9061,-0.9079,-0.9044,-0.9033,-0.9009,-0.9,-0.9015,-0.8963,-0.8952,-0.8904,-0.8889,-0.8878,-0.887,-0.8886,-0.8819,-0.8813,-0.8807,-0.8787,-0.8778,-0.8876,-0.8876,-0.8877,-0.8877,0,-0.9058,-0.9031,-0.9005,-0.8984,-0.8968,-0.8935,-0.8938,-0.8921,-0.8928,-0.8926,-0.8888,-0.8876,-0.8851,-0.884,-0.8845,-0.8794,-0.8803,-0.8818,-0.8845,-0.8796,-0.8777,-0.8769,-0.8873,-0.8874,-0.8875,-0.8875,0,0,-0.8969,-0.8956,-0.8946,-0.8939,-0.8924,-0.8903,-0.8872,-0.885,-0.8837,-0.882,-0.8795,-0.8759,-0.8774,-0.8761,-0.8765,-0.8744,-0.8696,-0.8762,-0.8761,-0.8751,-0.8642,-0.8631,-0.8622,-0.8704,-0.8703,-0.8701,-0.8644,0,-0.8906,-0.8854,-0.8861,-0.881,-0.8786,-0.8805,-0.8778,-0.8767,-0.8765,-0.8744,-0.8742,-0.8717,-0.8738,-0.873,-0.871,-0.8706,-0.8674,-0.871,-0.8681,-0.868,-0.8686,-0.8612,-0.86,-0.8547,-0.8636,-0.8635,-0.8634,0,-0.8825,-0.8809,-0.8757,-0.8749,-0.874,-0.8715,-0.8698,-0.8677,-0.8665,-0.8666,-0.8653,-0.8662,-0.8632,-0.8659,-0.8618,-0.8643,-0.8631,-0.8628,-0.8626,-0.8624,-0.8655,-0.8609,-0.8529,-0.8522,-0.8622,-0.8623,-0.8624,0,-0.8768,-0.8733,-0.8698,-0.8691,-0.8681,-0.8664,-0.8659,-0.8648,-0.8636,-0.862,-0.8612,-0.8592,-0.8581,-0.8565,-0.8569,-0.8589,-0.8528,-0.8555,-0.8529,-0.8529,-0.8515,-0.8516,-0.8433,-0.8506,-0.8506,-0.8506,-0.8506,0,-0.8697,-0.8665,-0.8673,-0.8652,-0.8617,-0.8626,-0.8591,-0.8588,-0.8579,-0.8558,-0.8572,-0.8551,-0.8557,-0.8537,-0.854,-0.8507,-0.8501,-0.8502,-0.8503,-0.8501,-0.8501,-0.8494,-0.8498,-0.8504,-0.8505,-0.8505,-0.8505,0,-0.8627,-0.8631,-0.8595,-0.859,-0.8588,-0.8562,-0.8558,-0.8538,-0.8539,-0.8512,-0.8506,-0.8506,-0.8484,-0.8487,-0.846,-0.8463,-0.8423,-0.8428,-0.8427,-0.8429,-0.8402,-0.8405,-0.8313,-0.8302,-0.8381,-0.838,-0.8379,0,-0.8582,-0.8558,-0.8551,-0.8539,-0.8534,-0.8513,-0.8501,-0.8509,-0.8496,-0.8483,-0.8465,-0.8445,-0.8429,-0.8392,-0.839,-0.8371,-0.8377,-0.8346,-0.8374,-0.8374,-0.8378,-0.838,-0.8379,-0.834,-0.8339,-0.8339,-0.8338,0,-0.8502,-0.8506,-0.8489,-0.8474,-0.846,-0.8448,-0.8437,-0.8425,-0.8433,-0.8418,-0.8396,-0.8384,-0.836,-0.834,-0.8323,-0.8317,-0.8329,-0.8329,-0.8323,-0.8321,-0.8322,-0.8323,-0.8413,-0.8331,-0.8332,-0.8332,-0.8333,-0.8333,-0.8444,-0.8425,-0.8419,-0.84,-0.8394,-0.8384,-0.8366,-0.8366,-0.8349,-0.8331,-0.8336,-0.8313,-0.8304,-0.8282,-0.8275,-0.8257,-0.8268,-0.8258,-0.8255,-0.8253,-0.8251,-0.8325,-0.8254,-0.8254,-0.8254,-0.8254,-0.8254,0,-0.8367,-0.8364,-0.8347,-0.8333,-0.8319,-0.8334,-0.8323,-0.831,-0.829,-0.8281,-0.8266,-0.8243,-0.8224,-0.8222,-0.8204,-0.819,-0.8196,-0.8186,-0.8187,-0.8186,-0.8241,-0.8249,-0.8182,-0.8182,-0.8182,-0.8182,-0.8182,-0.8182,-0.8325,-0.8294,-0.8298,-0.8265,-0.8263,-0.8241,-0.8234,-0.8226,-0.822,-0.8194,-0.8179,-0.8179,-0.8173,-0.8156,-0.814,-0.814,-0.8133,-0.8122,-0.8124,-0.8175,-0.8182,-0.8189,-0.8197,-0.812,-0.812,-0.8071,-0.8071,-0.807]}]]